Regional Weather Roundup
Issued by NWS

Home | Current Version | Previous Version | Text Only | Print | Product List | Glossary On
Versions: 1 2 3 4 5 6 7 8 9 10 11 12 13 14 15 16 17 18 19 20 21 22 23 24 25 26 27 28 29 30 31 32 33 34 35 36 37 38 39 40 41 42 43 44 45 46 47 48 49 50
000
ASUS43 KMKX 231721
RWRWI

WISCONSIN REGIONAL WEATHER ROUNDUP
NATIONAL WEATHER SERVICE MILWAUKEE/SULLIVAN WI
1200 PM CDT THU MAR 23 2017

NOTE: "FAIR" INDICATES FEW OR NO CLOUDS BELOW 12,000 FEET WITH NO
SIGNIFICANT WEATHER AND/OR OBSTRUCTIONS TO VISIBILITY.

WIZ001-002-006>008-014>016-023>028-231800-
NORTHWEST WISCONSIN

CITY           SKY/WX    TMP DP  RH WIND       PRES   REMARKS
SUPERIOR ARPT  CLOUDY    37  25  61 S10G16    30.06F WCI  30
ASHLAND        CLOUDY    35  24  64 S7        30.09F WCI  29
HAYWARD        CLOUDY    36  21  54 S12       30.08F WCI  28
SIREN          CLOUDY    37  23  56 S13G21    30.07S WCI  29
CUMBERLAND     CLOUDY    36  21  55 SE15      30.07F WCI  26
RICE LAKE      CLOUDY    35  24  65 SE15G21   30.11F WCI  25
CHETEK         CLOUDY    34  24  66 SE9       30.11F WCI  26
LADYSMITH      CLOUDY    35  23  61 SE10G17   30.12F WCI  27
EAU CLAIRE     CLOUDY    38  19  46 S14G22    30.11F WCI  30
MENOMONIE      CLOUDY    38  21  50 SE12      30.11F WCI  30
NEW RICHMOND   CLOUDY    38  21  50 S12G21    30.07F WCI  31
OSCEOLA        CLOUDY    39  23  53 S18       30.09F WCI  29
$$

WIZ003>005-009-010-017-018-231800-
NORTH CENTRAL WISCONSIN

CITY           SKY/WX    TMP DP  RH WIND       PRES   REMARKS
MANITOWISH WTR CLOUDY    32  19  59 S16       30.11F WCI  21
ARBOR VITAE    CLOUDY    32  20  61 S12G18    30.12F WCI  23
WOODRUFF       CLOUDY    32  20  61 S12G18    30.12F WCI  23
RHINELANDER    CLOUDY    32  20  61 S13G22    30.17S WCI  22
EAGLE RIVER    CLOUDY    30  19  65 S10G17    30.15F WCI  21
LAND O LAKES   CLOUDY    30  22  72 S13G18    30.15F WCI  20
PHILLIPS       CLOUDY    32  21  63 S12G20    30.12F WCI  23
TOMAHAWK       CLOUDY    32  22  66 S7        30.16F WCI  26
MEDFORD        CLOUDY    32  21  63 S15G21    30.15S WCI  22
MERRILL        CLOUDY    35  22  57 S12       30.18F WCI  27
$$

WIZ029-030-035-036-043>047-231800-
CENTRAL WISCONSIN

CITY           SKY/WX    TMP DP  RH WIND       PRES   REMARKS
WAUSAU         CLOUDY    35  21  56 SE17      30.19F WCI  25
MOSINEE        CLOUDY    34  23  64 SE12G18   30.21F WCI  25
MARSHFIELD     CLOUDY    35  21  56 S20G25    30.16F WCI  24
STEVENS POINT  CLOUDY    35  21  56 SE15G21   30.22F WCI  26
WAUPACA        CLOUDY    40  23  50 SE14      30.26F WCI  33
WAUTOMA        CLOUDY    40  22  48 SE16      30.24F WCI  31
WISC RAPIDS    CLOUDY    40  22  48 S13       30.21F WCI  32
CAMP DOUGLAS   CLOUDY    39  21  48 SE14G20   30.18F WCI  31
$$

WIZ011>013-019>022-031-037>040-048>050-231800-
NORTHEAST WISCONSIN

CITY           SKY/WX    TMP DP  RH WIND       PRES   REMARKS
ANTIGO         CLOUDY    32  25  75 S14       30.20S WCI  22
SHAWANO        CLOUDY    37  24  59 SE13G18   30.27F WCI  29
OCONTO         CLOUDY    35  25  68 S10G16    30.29F WCI  27
STURGEON BAY   CLOUDY    35  25  66 S17G24    30.30F WCI  25
GREEN BAY      CLOUDY    36  27  69 S16       30.29F WCI  26
MANITOWOC      CLOUDY    35  26  69 S23G30    30.32F WCI  23
APPLETON       CLOUDY    36  21  55 SE15G23   30.26  WCI  26
CLINTONVILLE   CLOUDY    36  23  60 S15G22    30.27F WCI  26
OSHKOSH        CLOUDY    39  24  55 S14G22    30.27F WCI  31
$$

WIZ032>034-041-042-053>061-231800-
SOUTHWEST WISCONSIN

CITY           SKY/WX    TMP DP  RH WIND       PRES   REMARKS
LA CROSSE      CLOUDY    41  21  44 S14       30.15F
SPARTA         CLOUDY    39  22  50 S8G16     30.18F WCI  33
VIROQUA        CLOUDY    37  22  55 SE17      30.14F WCI  27
BOSCOBEL       CLOUDY    43  22  43 SE8       30.19F
PRAIRIE DU CHI CLOUDY    41  21  45 SE13G18   30.17F
PLATTEVILLE    CLOUDY    40  25  54 SE21      30.20F WCI  30
$$

WIZ056-057-062-063-064-067-068-231800-
SOUTH CENTRAL WISCONSIN

CITY           SKY/WX    TMP DP  RH WIND       PRES   REMARKS
REEDSBURG      CLOUDY    38  22  54 SE10      30.22F WCI  30
BARABOO/DELLS  CLOUDY    38  22  52 SE16      30.22F WCI  29
LONE ROCK      CLOUDY    41  21  44 SE14      30.22F
MINERAL POINT  CLOUDY    43  23  45 SE18      30.20F
MADISON        CLOUDY    40  20  44 S16       30.24F WCI  31
MIDDLETON      CLOUDY    42  22  44 SE16      30.21F
WATERTOWN      CLOUDY    41  23  47 S14G21    30.28F
MONROE         CLOUDY    41  23  48 SE22      30.23F
JANESVILLE     PTSUNNY   45  19  36 S18G24    30.28F
$$

WIZ051-052-058>065-066-070>072-231800-
SOUTHEAST WISCONSIN

CITY           SKY/WX    TMP DP  RH WIND       PRES   REMARKS
MILWAUKEE      PTSUNNY   40  22  48 S21       30.34F WCI  30
WAUKESHA       MOSUNNY   39  23  52 SE12      30.30F WCI  32
MILWAUKEE/TIMM CLOUDY    37  19  48 SE15G21   30.34F WCI  28
RACINE         CLOUDY    38  22  52 S21G28    30.36F WCI  28
KENOSHA        MOSUNNY   39  24  55 S16G24    30.33F WCI  30
FOND DU LAC    PTSUNNY   38  23  55 S21       30.28F WCI  28
SHEBOYGAN      CLOUDY    35  25  66 S18G28    30.33F WCI  24
WEST BEND      PTSUNNY   39  25  56 S9        30.31F WCI  33
JUNEAU         CLOUDY    39  23  53 SE15      30.29F WCI  30
$$

LSZ147-162-231800-
LAKE SUPERIOR

STATION/POSITION TIME  TEMP    WIND        PRES    WAVE
                       AIR SEA DIR/SP/G            HT/PER
                 (UTC) (F)     (DEG/KT/KT) (MB)    (FT/S)
DEVILS ISLAND    1700   35     180/ 10/ 12 1019.9F
PORT WING        1640   37     170/  7/ 10 1019.0S
SAXON HARBOR     1640   37     200/  5/ 15 1019.0F
$$

LMZ867-665-643>646-231800-
LAKE MICHIGAN

STATION/POSITION TIME  TEMP    WIND        PRES    WAVE
                       AIR SEA DIR/SP/G            HT/PER
                 (UTC) (F)     (DEG/KT/KT) (MB)    (FT/S)
CHAMBERS ISLAND  1640   36     150/  5/ 10 1026.1F
NORTHPORT PIER   1640   35     160/ 12/ 17 1026.8F
SISTER BAY       1621   37     180/ 18/ 23   N/A
KEWAUNEE LAKESHO 1654   34     180/ 21/ 27 1026.5F
SHEBOYGAN LAKESH 1700   34     160/ 22/ 25 1027.5F
PORT WASHINGTON  1648   37     160/ 20/ 26 1027.8F
MILWAUKEE LAKESH 1650   34     150/ 23/ 24   N/A
KENOSHA   LAKESH 1700   34     160/ 22/ 25 1027.1
$$

TC  - TEMPERATURE IN CELSIUS
VSB - VISIBILITY IN STATUTE MILES
WCI - WIND CHILL INDEX
HX  - HEAT INDEX




USA.gov is the U.S. government's official web portal to all federal, state and local government web resources and services.